This demonstration page uses our WeatherBlox Daily Observations layout. Learn more.

Left ArrowRight Arrow

34.16533, -84.80231

Hourly Observations for August 20, 2020

Temp ( °F °C ) Dew Point ( °F °C ) Humidity (%) Winds ( mph kmh ) Pressure ( in mb ) Visibility ( mi km ) Precip ( " mm )
12:53 am 00:53 Clear 69 20.6 66 18.9 90 90 Calm 29.93 1013 8 13 0.00 0.00
1:53 am 01:53 Clear 69 20.6 66 18.9 90 90 Calm 29.93 1014 8 13 0.00 0.00
2:53 am 02:53 Mostly Clear 69 20.6 66 18.9 90 90 Calm 29.91 1013 8 13 0.00 0.00
3:53 am 03:53 Clear with Mist and Fog 68 20 66 18.9 93 93 Calm 29.91 1013 6 10 0.00 0.00
4:16 am 04:16 Partly Cloudy 68 20 65 18.3 90 90 Calm 29.92 1013 7 11 0.00 0.00
4:48 am 04:48 Mostly Cloudy with Mist and Fog 68 20 64 18 88 88 Calm 29.92 1013 6 10 0.00 0.00
4:53 am 04:53 Mostly Cloudy with Mist and Fog 68 20 66 18.9 93 93 Calm 29.91 1013 6 10 0.00 0.00
5:05 am 05:05 Cloudy with Mist and Fog 68 20 65 18.3 90 90 Calm 29.92 1013 6 10 0.00 0.00
5:33 am 05:33 Cloudy with Mist and Fog 68 20 66 18.9 93 93 Calm 29.93 1014 4 6 0.00 0.00
5:53 am 05:53 Cloudy with Mist and Fog 69 20.6 66 18.9 90 90 Calm 29.91 1013 6 10 0.00 0.00
6:12 am 06:12 Partly Cloudy with Mist and Fog 68 20 66 18.9 93 93 Calm 29.92 1013 6 10 0.00 0.00
6:53 am 06:53 Clear 69 20.6 66 18.9 90 90 Calm 29.92 1013 8 13 0.00 0.00
7:53 am 07:53 Sunny 71 21.7 67 19.4 87 87 E 3 6 29.93 1014 10 16 0.00 0.00
8:53 am 08:53 Sunny 74 23.3 67 19.4 79 79 VRB 7 11 29.94 1014 10 16 0.00 0.00
9:53 am 09:53 Sunny 75 23.9 67 19.4 76 76 VRB 5 7 29.96 1015 10 16 0.00 0.00
10:53 am 10:53 Sunny 76 24.4 67 19.4 74 74 SE 3 6 29.97 1015 10 16 0.00 0.00
11:53 am 11:53 Sunny 79 26.1 69 20.6 72 72 E 7 11 29.96 1015 10 16 0.00 0.00
12:53 pm 12:53 Mostly Cloudy 79 26.1 69 20.6 72 72 ESE 5 7 29.96 1014 10 16 0.00 0.00
1:53 pm 13:53 Mostly Sunny 81 27.2 69 20.6 67 67 E 5 7 29.92 1013 10 16 0.00 0.00
2:40 pm 14:40 Mostly Cloudy 83 28.3 69 20.6 63 63 E 5 7 29.89 1012 10 16 0.00 0.00
2:53 pm 14:53 Cloudy 83 28.3 70 21.1 65 65 Calm 29.88 1012 10 16 0.00 0.00
3:05 pm 15:05 Mostly Cloudy 85 29.4 70 21.1 61 61 Calm 29.88 1012 10 16 0.00 0.00
3:53 pm 15:53 Partly Cloudy 85 29.4 70 21.1 61 61 VRB 5 7 29.86 1011 10 16 0.00 0.00
4:53 pm 16:53 Mostly Cloudy 80 26.7 68 20 67 67 ENE 8 13 29.86 1011 10 16 0.00 0.00
5:02 pm 17:02 Mostly Cloudy with Thunderstorms 79 26.1 68 20 69 69 ENE 6 9 29.87 1011 10 16 0.00 0.00
5:17 pm 17:17 Mostly Cloudy with Nearby Thunderstorms 78 25.6 68 20 71 71 VRB 5 7 29.88 1012 10 16 0.00 0.00
5:41 pm 17:41 Partly Cloudy with Thunderstorms 78 25.6 68 20 71 71 E 5 7 29.88 1012 10 16 0.00 0.00
5:53 pm 17:53 Partly Cloudy with Thunderstorms 78 25.6 69 20.6 74 74 SE 3 6 29.88 1012 10 16 0.00 0.00
6:48 pm 18:48 Mostly Cloudy with Light Rain 73 23 70 21 89 89 Calm 29.89 1012 5 8 0.06 1.52
6:53 pm 18:53 Mostly Cloudy with Light Rain 73 22.8 70 21.1 90 90 N 5 7 29.88 1012 6 10 0.07 1.78
7:31 pm 19:31 Cloudy with Nearby Thunderstorms 73 22.8 71 21.7 94 94 SSE 7 11 29.91 1013 4 6 0.03 0.76
7:38 pm 19:38 Mostly Cloudy with Nearby Thunderstorms 73 22.8 70 21.1 90 90 SSE 13 20 29.92 1013 3 5 0.08 2.03
7:48 pm 19:48 Cloudy with Heavy Rain 72 22 68 20 88 88 SSE 13 20 29.92 1013 3 5 0.14 3.56
7:53 pm 19:53 Cloudy with Rain 72 22.2 67 19.4 84 84 SSE 14 22 29.90 1012 4 6 0.15 3.81
8:06 pm 20:06 Mostly Cloudy with Nearby Thunderstorms 71 21.7 67 19.4 87 87 SE 8 13 29.91 1013 9 14 0.01 0.25
8:32 pm 20:32 Mostly Cloudy with Rain 71 21.7 68 20 90 90 NE 7 11 29.92 1013 7 11 0.07 1.78
8:53 pm 20:53 Mostly Clear with Light Rain 71 21.7 68 20 90 90 NNE 5 7 29.92 1013 10 16 0.09 2.29
9:53 pm 21:53 Mostly Cloudy 71 21.7 67 19.4 87 87 NE 5 7 29.93 1014 10 16 0.00 0.00
10:53 pm 22:53 Clear 70 21.1 67 19.4 90 90 NE 3 6 29.92 1013 10 16 0.00 0.00
11:53 pm 23:53 Cloudy 70 21.1 67 19.4 90 90 Calm 29.91 1013 10 16 0.00 0.00

Powered by AerisWeather